| time (UTC) | temp C | wind direction | speed KPH | gust KPH | rain 1hr cm | rain 24hr cm | rain mn cm | humidity % | barometer mb |
| 20260506165019 | 22 | 142 | 11.3 | 24.1 | 0.00 | 0.00 | 0.00 | 43 | 1002.9 |
| 20260506164020 | 22 | 144 | 11.3 | 22.5 | 0.00 | 0.00 | 0.00 | 43 | 1002.8 |
| 20260506163020 | 22 | 142 | 12.9 | 24.1 | 0.00 | 0.00 | 0.00 | 43 | 1002.9 |
| 20260506162041 | 23 | 144 | 11.3 | 20.9 | 0.00 | 0.00 | 0.00 | 43 | 1003.0 |
| 20260506161020 | 23 | 146 | 12.9 | 27.4 | 0.00 | 0.00 | 0.00 | 41 | 1003.1 |
| 20260506160020 | 23 | 147 | 8.0 | 14.5 | 0.00 | 0.00 | 0.00 | 40 | 1003.1 |
| 20260506155019 | 25 | 156 | 8.0 | 20.9 | 0.00 | 0.00 | 0.00 | 36 | 1003.0 |
| 20260506154018 | 25 | 219 | 3.2 | 12.9 | 0.00 | 0.00 | 0.00 | 31 | 1003.0 |
| 20260506153020 | 25 | 221 | 6.4 | 14.5 | 0.00 | 0.00 | 0.00 | 31 | 1003.1 |
| 20260506152019 | 25 | 229 | 4.8 | 14.5 | 0.00 | 0.00 | 0.00 | 31 | 1003.1 |
| 20260506151038 | 25 | 212 | 4.8 | 11.3 | 0.00 | 0.00 | 0.00 | 31 | 1003.1 |
| 20260506150020 | 26 | 219 | 4.8 | 14.5 | 0.00 | 0.00 | 0.00 | 31 | 1003.2 |
| 20260506145022 | 26 | 222 | 6.4 | 17.7 | 0.00 | 0.00 | 0.00 | 30 | 1003.1 |
| 20260506144023 | 26 | 219 | 6.4 | 14.5 | 0.00 | 0.00 | 0.00 | 30 | 1003.2 |
| 20260506143018 | 26 | 169 | 3.2 | 9.7 | 0.00 | 0.00 | 0.00 | 30 | 1003.2 |
| 20260506142022 | 26 | 203 | 1.6 | 6.4 | 0.00 | 0.00 | 0.00 | 30 | 1003.2 |
| 20260506141022 | 25 | 152 | 3.2 | 9.7 | 0.00 | 0.00 | 0.00 | 35 | 1003.2 |
| 20260506140021 | 25 | 139 | 8.0 | 22.5 | 0.00 | 0.00 | 0.00 | 35 | 1003.3 |
| 20260506135018 | 25 | 133 | 14.5 | 35.4 | 0.00 | 0.00 | 0.00 | 34 | 1003.2 |
| 20260506134020 | 25 | 140 | 14.5 | 33.8 | 0.00 | 0.00 | 0.00 | 34 | 1003.4 |
| 20260506132020 | 25 | 136 | 12.9 | 24.1 | 0.00 | 0.00 | 0.00 | 35 | 1003.6 |
| 20260506131018 | 26 | 131 | 12.9 | 20.9 | 0.00 | 0.00 | 0.00 | 34 | 1003.8 |
| 20260506130017 | 25 | 137 | 14.5 | 29.0 | 0.00 | 0.00 | 0.00 | 36 | 1003.9 |
| 20260506125023 | 25 | 133 | 11.3 | 20.9 | 0.00 | 0.00 | 0.00 | 36 | 1004.1 |
| 20260506124020 | 24 | 138 | 11.3 | 24.1 | 0.00 | 0.00 | 0.00 | 37 | 1004.2 |
| 20260506123019 | 24 | 140 | 14.5 | 30.6 | 0.00 | 0.00 | 0.00 | 37 | 1004.4 |
| 20260506122020 | 23 | 137 | 14.5 | 33.8 | 0.00 | 0.00 | 0.00 | 39 | 1004.5 |
| 20260506121018 | 23 | 131 | 12.9 | 29.0 | 0.00 | 0.00 | 0.00 | 40 | 1004.6 |
| 20260506120018 | 23 | 137 | 14.5 | 25.7 | 0.00 | 0.00 | 0.00 | 40 | 1004.9 |
| 20260506115021 | 23 | 134 | 16.1 | 29.0 | 0.00 | 0.00 | 0.00 | 39 | 1005.0 |
| 20260506114039 | 23 | 131 | 16.1 | 30.6 | 0.00 | 0.00 | 0.00 | 38 | 1005.1 |
| 20260506113020 | 23 | 129 | 14.5 | 30.6 | 0.00 | 0.00 | 0.00 | 40 | 1005.1 |
| 20260506112020 | 23 | 130 | 12.9 | 29.0 | 0.00 | 0.00 | 0.00 | 41 | 1005.4 |
| 20260506111021 | 23 | 126 | 16.1 | 29.0 | 0.00 | 0.00 | 0.00 | 40 | 1005.5 |
| 20260506110023 | 23 | 138 | 16.1 | 38.6 | 0.00 | 0.00 | 0.00 | 40 | 1005.7 |
| 20260506105023 | 23 | 122 | 14.5 | 29.0 | 0.00 | 0.00 | 0.00 | 42 | 1005.9 |
| 20260506104021 | 23 | 128 | 19.3 | 35.4 | 0.00 | 0.00 | 0.00 | 43 | 1006.2 |
| 20260506103020 | 23 | 128 | 17.7 | 38.6 | 0.00 | 0.00 | 0.00 | 42 | 1006.2 |
| 20260506102022 | 23 | 140 | 14.5 | 30.6 | 0.00 | 0.00 | 0.00 | 42 | 1006.3 |
| 20260506101048 | 23 | 141 | 16.1 | 41.8 | 0.00 | 0.00 | 0.00 | 41 | 1006.3 |
| 20260506100020 | 23 | 150 | 12.9 | 27.4 | 0.00 | 0.00 | 0.00 | 40 | 1006.5 |
| 20260506095020 | 23 | 154 | 14.5 | 33.8 | 0.00 | 0.00 | 0.00 | 40 | 1006.6 |
| 20260506094019 | 23 | 151 | 11.3 | 24.1 | 0.00 | 0.00 | 0.00 | 41 | 1006.7 |
| 20260506093021 | 23 | 129 | 12.9 | 41.8 | 0.00 | 0.00 | 0.00 | 43 | 1007.0 |
| 20260506092019 | 22 | 132 | 11.3 | 24.1 | 0.00 | 0.00 | 0.00 | 43 | 1007.1 |
| 20260506091017 | 22 | 136 | 11.3 | 29.0 | 0.00 | 0.00 | 0.00 | 43 | 1007.0 |
| 20260506090019 | 22 | 142 | 8.0 | 22.5 | 0.00 | 0.00 | 0.00 | 42 | 1007.1 |
| 20260506085023 | 22 | 139 | 6.4 | 14.5 | 0.00 | 0.00 | 0.00 | 43 | 1007.2 |
| 20260506084022 | 22 | 125 | 6.4 | 14.5 | 0.00 | 0.00 | 0.00 | 42 | 1007.1 |
| 20260506083019 | 23 | 110 | 11.3 | 27.4 | 0.00 | 0.00 | 0.00 | 42 | 1007.3 |
| 20260506082019 | 23 | 351 | 4.8 | 9.7 | 0.00 | 0.00 | 0.00 | 43 | 1007.4 |
| 20260506081023 | 22 | 359 | 3.2 | 6.4 | 0.00 | 0.00 | 0.00 | 44 | 1007.4 |
| 20260506073022 | 20 | 20 | 1.6 | 4.8 | 0.00 | 0.00 | 0.00 | 52 | 1007.9 |
| 20260506072018 | 20 | 84 | 3.2 | 4.8 | 0.00 | 0.00 | 0.00 | 51 | 1007.8 |
| 20260506071021 | 20 | 258 | 1.6 | 3.2 | 0.00 | 0.00 | 0.00 | 53 | 1008.0 |
| 20260506061519 | 16 | 228 | 1.6 | 4.8 | 0.00 | 0.00 | 0.00 | 62 | 1008.4 |
| 20260506060522 | 16 | 235 | 1.6 | 4.8 | 0.00 | 0.00 | 0.00 | 69 | 1008.4 |
| 20260506050521 | 15 | 180 | 0.0 | 1.6 | 0.00 | 0.00 | 0.00 | 72 | 1008.6 |
| 20260506044520 | 14 | 0.0 | 0.0 | 0.00 | 0.00 | 0.00 | 75 | 1008.4 | |
| 20260506043519 | 14 | 237 | 0.0 | 1.6 | 0.00 | 0.00 | 0.00 | 75 | 1008.2 |
| 20260506042518 | 14 | 290 | 1.6 | 3.2 | 0.00 | 0.00 | 0.00 | 74 | 1008.2 |
| 20260506041559 | 14 | 327 | 1.6 | 3.2 | 0.00 | 0.00 | 0.00 | 73 | 1008.2 |
| 20260506040518 | 14 | 309 | 0.0 | 1.6 | 0.00 | 0.00 | 0.00 | 73 | 1008.1 |
| 20260506035520 | 14 | 235 | 1.6 | 11.3 | 0.00 | 0.00 | 0.00 | 73 | 1007.9 |
| 20260506034518 | 14 | 247 | 3.2 | 6.4 | 0.00 | 0.00 | 0.00 | 73 | 1007.9 |
| 20260506033519 | 14 | 271 | 3.2 | 12.9 | 0.00 | 0.00 | 0.00 | 73 | 1007.8 |
| 20260506032523 | 15 | 274 | 3.2 | 11.3 | 0.00 | 0.00 | 0.00 | 72 | 1007.9 |
| 20260506031518 | 15 | 300 | 4.8 | 14.5 | 0.00 | 0.00 | 0.00 | 71 | 1008.0 |
| 20260506030522 | 15 | 256 | 3.2 | 11.3 | 0.00 | 0.00 | 0.00 | 71 | 1007.8 |
| 20260506025518 | 15 | 261 | 8.0 | 25.7 | 0.00 | 0.00 | 0.00 | 71 | 1007.8 |
| 20260506024521 | 15 | 268 | 4.8 | 14.5 | 0.00 | 0.00 | 0.00 | 72 | 1008.1 |
| 20260506023519 | 15 | 287 | 3.2 | 11.3 | 0.00 | 0.00 | 0.00 | 72 | 1008.0 |
| 20260506022518 | 15 | 278 | 4.8 | 9.7 | 0.00 | 0.00 | 0.00 | 72 | 1008.0 |
| 20260506021517 | 15 | 272 | 4.8 | 17.7 | 0.00 | 0.00 | 0.00 | 72 | 1007.9 |
| 20260506020448 | -17 | 240 | 6.4 | 16.1 | 0.00 | 0.00 | 0.00 | 1007.9 | |
| 20260506020041 | 15 | 273 | 4.8 | 14.5 | 0.00 | 0.00 | 0.00 | 71 | 1007.9 |
| 20260506015021 | 16 | 270 | 6.4 | 17.7 | 0.00 | 0.00 | 0.00 | 70 | 1007.6 |
| 20260506014021 | 16 | 248 | 8.0 | 24.1 | 0.00 | 0.00 | 0.00 | 70 | 1007.5 |
| 20260506013021 | 16 | 249 | 6.4 | 17.7 | 0.00 | 0.00 | 0.00 | 71 | 1007.6 |
| 20260506012041 | 16 | 252 | 6.4 | 14.5 | 0.00 | 0.00 | 0.00 | 71 | 1007.4 |
| 20260506011021 | 16 | 248 | 6.4 | 24.1 | 0.00 | 0.00 | 0.00 | 70 | 1007.3 |
| 20260506010017 | 16 | 265 | 6.4 | 22.5 | 0.00 | 0.00 | 0.00 | 69 | 1007.3 |
| 20260506005020 | 16 | 280 | 6.4 | 20.9 | 0.00 | 0.00 | 0.00 | 69 | 1007.2 |
| 20260506004022 | 16 | 266 | 6.4 | 25.7 | 0.00 | 0.00 | 0.00 | 67 | 1007.0 |
| 20260506003020 | 16 | 253 | 8.0 | 25.7 | 0.00 | 0.00 | 0.00 | 66 | 1007.1 |
| 20260506002018 | 17 | 270 | 8.0 | 24.1 | 0.00 | 0.00 | 0.00 | 65 | 1007.0 |
| 20260506001036 | 17 | 252 | 8.0 | 27.4 | 0.00 | 0.00 | 0.00 | 64 | 1006.8 |
| 20260506000039 | 17 | 251 | 4.8 | 12.9 | 0.00 | 0.00 | 0.00 | 63 | 1006.6 |
| 20260505235017 | 17 | 268 | 4.8 | 14.5 | 0.00 | 0.00 | 0.00 | 63 | 1006.4 |
| 20260505234018 | 17 | 252 | 4.8 | 14.5 | 0.00 | 0.00 | 0.00 | 62 | 1006.2 |
| 20260505233021 | 17 | 254 | 6.4 | 16.1 | 0.00 | 0.00 | 0.00 | 61 | 1006.2 |
| 20260505232021 | 17 | 268 | 6.4 | 16.1 | 0.00 | 0.00 | 0.00 | 61 | 1006.2 |
| 20260505231019 | 17 | 263 | 6.4 | 14.5 | 0.00 | 0.00 | 0.00 | 61 | 1006.2 |
| 20260505230018 | 17 | 252 | 3.2 | 12.9 | 0.00 | 0.00 | 0.00 | 61 | 1005.9 |
| 20260505225018 | 17 | 257 | 3.2 | 12.9 | 0.00 | 0.00 | 0.00 | 62 | 1005.9 |
| 20260505224039 | 16 | 278 | 3.2 | 11.3 | 0.00 | 0.00 | 0.00 | 62 | 1005.6 |
| 20260505223020 | 17 | 276 | 3.2 | 11.3 | 0.00 | 0.00 | 0.00 | 61 | 1005.4 |
| 20260505222022 | 17 | 283 | 3.2 | 6.4 | 0.00 | 0.00 | 0.00 | 59 | 1005.4 |
| 20260505221019 | 17 | 240 | 3.2 | 11.3 | 0.00 | 0.00 | 0.00 | 59 | 1005.2 |
| 20260505220018 | 17 | 279 | 1.6 | 12.9 | 0.00 | 0.00 | 0.00 | 58 | 1005.3 |
| 20260505215020 | 17 | 272 | 4.8 | 20.9 | 0.00 | 0.00 | 0.00 | 57 | 1005.1 |
| 20260505214027 | 18 | 260 | 4.8 | 17.7 | 0.00 | 0.00 | 0.00 | 56 | 1005.0 |
| 20260505213019 | 18 | 273 | 4.8 | 17.7 | 0.00 | 0.00 | 0.00 | 56 | 1005.1 |
| 20260505212021 | 18 | 269 | 6.4 | 17.7 | 0.00 | 0.00 | 0.00 | 56 | 1004.9 |
| 20260505211038 | 17 | 242 | 4.8 | 22.5 | 0.00 | 0.00 | 0.00 | 55 | 1004.6 |
| 20260505210017 | 17 | 222 | 3.2 | 12.9 | 0.00 | 0.00 | 0.00 | 53 | 1004.6 |
| 20260505205023 | 17 | 221 | 4.8 | 14.5 | 0.00 | 0.00 | 0.00 | 53 | 1004.5 |
| 20260505204022 | 16 | 244 | 3.2 | 12.9 | 0.00 | 0.00 | 0.00 | 55 | 1004.5 |
| 20260505203017 | 16 | 262 | 0.0 | 3.2 | 0.00 | 0.00 | 0.00 | 57 | 1004.2 |
| 20260505202020 | 17 | 263 | 1.6 | 3.2 | 0.00 | 0.00 | 0.00 | 55 | 1003.9 |
| 20260505201018 | 17 | 250 | 1.6 | 3.2 | 0.00 | 0.00 | 0.00 | 54 | 1003.7 |
| 20260505200020 | 17 | 154 | 0.0 | 3.2 | 0.00 | 0.00 | 0.00 | 51 | 1003.5 |
| 20260505195019 | 18 | 169 | 1.6 | 4.8 | 0.00 | 0.00 | 0.00 | 51 | 1003.5 |
| 20260505194023 | 18 | 137 | 0.0 | 1.6 | 0.00 | 0.00 | 0.00 | 49 | 1003.4 |
| 20260505193019 | 18 | 151 | 3.2 | 6.4 | 0.00 | 0.00 | 0.00 | 48 | 1003.4 |
| 20260505192020 | 19 | 142 | 6.4 | 12.9 | 0.00 | 0.00 | 0.00 | 47 | 1003.3 |
| 20260505191023 | 19 | 138 | 8.0 | 16.1 | 0.00 | 0.00 | 0.00 | 47 | 1003.2 |
| 20260505190045 | 19 | 137 | 8.0 | 16.1 | 0.00 | 0.00 | 0.00 | 46 | 1003.2 |
| 20260505185021 | 20 | 138 | 8.0 | 14.5 | 0.00 | 0.00 | 0.00 | 46 | 1003.1 |
| 20260505184041 | 20 | 144 | 9.7 | 14.5 | 0.00 | 0.00 | 0.00 | 46 | 1003.1 |
| 20260505183022 | 20 | 140 | 9.7 | 14.5 | 0.00 | 0.00 | 0.00 | 45 | 1003.0 |
| 20260505182019 | 21 | 142 | 9.7 | 17.7 | 0.00 | 0.00 | 0.00 | 44 | 1003.0 |
| 20260505181021 | 21 | 142 | 9.7 | 16.1 | 0.00 | 0.00 | 0.00 | 43 | 1002.9 |
| 20260505180040 | 21 | 143 | 9.7 | 22.5 | 0.00 | 0.00 | 0.00 | 43 | 1002.9 |
| 20260505175019 | 21 | 135 | 11.3 | 20.9 | 0.00 | 0.00 | 0.00 | 42 | 1002.9 |
| 20260505174104 | 22 | 143 | 9.7 | 17.7 | 0.00 | 0.00 | 0.00 | 42 | 1002.9 |
| 20260505173019 | 22 | 137 | 9.7 | 22.5 | 0.00 | 0.00 | 0.00 | 41 | 1002.9 |
| 20260505172016 | 22 | 143 | 14.5 | 27.4 | 0.00 | 0.00 | 0.00 | 40 | 1002.8 |
| 20260505171019 | 23 | 139 | 9.7 | 17.7 | 0.00 | 0.00 | 0.00 | 40 | 1002.8 |
| 20260505170020 | 23 | 144 | 8.0 | 17.7 | 0.00 | 0.00 | 0.00 | 39 | 1003.0 |